Regional Weather Roundup
Issued by NWS

Home | Current Version | Previous Version | Graphics & Text | Print | Product List | Glossary On
Versions: 1 2 3 4 5 6 7 8 9 10 11 12 13 14 15 16 17 18 19 20 21 22 23 24 25 26 27 28 29 30 31 32 33 34 35 36 37 38 39 40 41 42 43 44 45 46 47 48 49 50
000
ASUS45 KABQ 230701
RWRNM
WEATHER ROUNDUP FOR NEW MEXICO
NATIONAL WEATHER SERVICE ALBUQUERQUE NM
100 AM MDT WED JUL 23 2014

NOTE: "FAIR" MEANS FEW OR NO CLOUDS BELOW 12,000 FEET AGL WITH NO
       SIGNIFICANT WEATHER OR OBSTRUCTIONS TO VISION.

      THIS PRODUCT IS RELEASED AS TWO VERSIONS.  ONE VERSION NEAR
      THE TOP OF THE HOUR CONTAINING PRELIMINARY DATA FROM ALBUQUERQUE
      AND OTHER STATIONS.  A FINAL VERSION WITH ADDITIONAL DATA IS
      ISSUED ABOUT 10 MINUTES AFTER THE HOUR.

NMZ501-503-504-510>518-230800-
NORTHWEST PLATEAU/NORTHCENTRAL MOUNTAINS

CITY           SKY/WX    TMP DP  RH WIND       PRES   REMARKS
FARMINGTON     CLEAR     78  48  34 E21G32    30.36R
LOS ALAMOS     CLEAR     70  40  33 W9        30.49F
SANTA FE       CLEAR     61  52  72 NE6       30.41F
TAOS           CLEAR     61  48  63 CALM      30.51S
ANGEL FIRE     FAIR      49  46  88 CALM      30.62S

$$
NMZ402-403-502-505>509-230800-
WESTCENTRAL MOUNTAINS/SOUTHWEST MOUNTAINS

CITY           SKY/WX    TMP DP  RH WIND       PRES   REMARKS
GALLUP         CLEAR     72  48  42 SE6       30.42R
GRANTS         MOCLDY    62  54  73 CALM      30.44R

$$
NMZ407-409-411-412-230800-
SOUTHERN DESERTS

CITY           SKY/WX    TMP DP  RH WIND       PRES   REMARKS
LORDSBURG      FAIR      73  59  60 SE10      30.30S
DEMING         LGT RAIN  71  66  84 W8        30.28F
LAS CRUCES     CLOUDY    73  63  71 CALM      30.28S
HOLLOMAN AFB   CLOUDY    79  57  46 SE5       30.23R
T OR C         CLOUDY    75  59  57 SW9       30.30S

$$
NMZ519>523-230800-
CENTRAL VALLEYS/CENTRAL HIGHLANDS

CITY           SKY/WX    TMP DP  RH WIND       PRES   REMARKS
ALBUQUERQUE    MOCLDY    75  56  51 NE5       30.34R
DOUBLE EAGLE   PTCLDY    66  54  65 W7        30.37S
MORIARTY ARPT  FAIR      64  52  66 NE5       30.41S
CLINES CORNERS MOCLDY    64  52  64 E7        30.46S
BELEN          FAIR      71  51  49 W9        30.31F
SOCORRO        FAIR      77  50  37 CALM      30.30S

$$
NMZ524>526-539-540-230800-
SOUTHCENTRAL MOUNTAINS

CITY           SKY/WX    TMP DP  RH WIND       PRES   REMARKS
RUIDOSO        NOT AVBL

$$
NMZ527>531-230800-
NORTHEAST HIGHLANDS/NORTHEAST PLAINS

CITY           SKY/WX    TMP DP  RH WIND       PRES   REMARKS
LAS VEGAS      PTCLDY    60  54  80 NE6       30.47F
RATON          CLEAR     65  53  65 N7        30.43S
CLAYTON        CLEAR     73  59  61 SW9       30.33F

$$
NMZ532>537-230800-
EASTCENTRAL PLAINS

CITY           SKY/WX    TMP DP  RH WIND       PRES   REMARKS
TUCUMCARI      CLOUDY    73  62  68 CALM      30.25S
CANNON AFB     MOCLDY    72  63  72 E7        30.29S
CLOVIS AIRPORT MOCLDY    68  61  77 E7        30.32S

$$
NMZ028-029-538-230800-
SOUTHEAST PLAINS

CITY           SKY/WX    TMP DP  RH WIND       PRES   REMARKS
ROSWELL        CLOUDY    82  60  47 CALM      30.22R
ARTESIA        MOCLDY    81  57  44 S6        30.21R
CARLSBAD       MOCLDY    83  55  38 SE7       30.18R
HOBBS          MOCLDY    77  59  53 E10       30.24R


$$



USA.gov is the U.S. government's official web portal to all federal, state and local government web resources and services.